Total_Precipitation_Accumulation
0.05 0.11 0.14 0.12 0.16 0.20 0.18 0.30 0.41 0.42 0.38 0.42 0.55 0.75 0.98 1.06 1.28 1.57 1.68 1.78 1.97 2.14 2.41 2.83 3.53 4.57 5.12 5.79 5.67 5.24 4.94 4.72 4.68 4.67 4.68 4.63 4.69 4.85 4.97 4.86 4.63 4.59 4.46 4.59
0.09 0.10 0.09 0.08 0.12 0.13 0.16 0.26 0.35 0.43 0.48 0.51 0.69 0.88 1.14 1.26 1.40 1.54 1.59 1.74 1.81 1.99 2.56 3.23 3.80 4.40 4.83 4.99 5.15 5.36 5.31 5.24 4.98 4.97 5.25 5.60 5.81 5.68 5.69 5.63 5.61 5.41 5.22 5.22
0.12 0.09 0.06 0.07 0.10 0.10 0.15 0.22 0.29 0.42 0.55 0.69 0.95 1.29 1.38 1.41 1.60 1.62 1.62 1.68 1.76 1.97 2.31 2.99 3.53 3.96 4.49 4.85 4.93 5.21 5.25 5.42 5.69 5.90 5.99 6.30 6.55 6.35 6.13 5.79 5.64 5.39 5.09 5.04
0.07 0.05 0.05 0.08 0.10 0.10 0.14 0.15 0.23 0.33 0.55 0.84 1.05 1.61 1.71 1.65 1.75 1.78 1.83 1.86 1.90 2.13 2.28 2.59 3.02 3.34 3.75 4.10 4.42 4.81 4.99 5.19 5.76 6.51 6.76 6.77 6.85 6.67 6.30 5.98 5.69 5.37 5.02 4.73
0.07 0.05 0.08 0.09 0.09 0.08 0.10 0.12 0.19 0.30 0.47 0.84 1.01 1.39 1.94 1.91 1.94 1.88 1.93 1.99 1.99 2.01 2.12 2.29 2.43 2.83 3.37 3.62 3.87 4.36 4.76 5.22 5.86 6.40 6.76 6.97 6.85 6.59 6.26 5.81 5.49 5.18 4.79 4.38
0.06 0.07 0.07 0.09 0.09 0.07 0.09 0.15 0.27 0.37 0.61 1.06 0.91 1.15 1.96 2.13 2.07 1.94 1.93 2.01 2.04 1.91 1.95 2.09 2.30 2.57 2.91 3.25 3.54 3.85 4.40 5.07 5.51 5.87 6.23 6.41 6.46 6.32 5.99 5.52 5.20 4.87 4.53 4.16
0.12 0.11 0.08 0.08 0.10 0.11 0.17 0.43 0.86 1.06 1.22 1.20 0.81 1.19 2.01 2.16 2.12 2.06 2.04 2.26 2.17 1.89 1.91 2.21 2.35 2.57 2.82 3.13 3.49 3.82 4.24 4.77 5.05 5.13 5.30 5.59 5.77 5.75 5.59 5.35 5.01 4.59 4.12 3.65
0.23 0.21 0.12 0.10 0.12 0.15 0.20 0.42 0.95 1.24 1.29 1.25 1.19 1.80 2.29 2.18 2.11 2.13 2.10 2.17 2.12 1.98 2.11 2.26 2.29 2.46 2.78 3.01 3.21 3.58 3.80 4.29 4.55 4.42 4.53 4.84 5.07 5.01 4.84 4.59 4.13 3.71 3.38 3.11
0.28 0.27 0.12 0.11 0.12 0.13 0.20 0.32 0.44 0.76 0.93 1.28 1.77 2.30 2.67 2.65 2.49 2.33 2.21 2.01 1.98 1.98 2.14 2.24 2.16 2.26 2.51 2.81 3.00 3.19 3.33 3.67 3.90 3.86 3.91 3.94 3.96 3.96 3.86 3.62 3.27 2.92 2.69 2.46
0.21 0.25 0.15 0.13 0.15 0.19 0.22 0.27 0.44 0.86 1.23 1.59 1.95 2.66 3.26 3.07 2.75 2.47 2.29 1.99 1.93 1.85 1.90 2.00 2.07 2.18 2.12 2.21 2.53 2.78 2.84 2.96 3.08 3.07 3.08 3.08 3.15 3.21 3.12 2.84 2.50 2.35 2.29 2.15
0.19 0.29 0.25 0.23 0.26 0.30 0.33 0.38 0.46 0.71 0.88 1.38 1.98 2.65 2.76 2.84 2.62 2.43 2.19 1.93 1.76 1.68 1.75 1.88 2.00 2.06 1.94 1.88 1.99 2.23 2.45 2.55 2.64 2.73 2.76 2.66 2.61 2.53 2.47 2.33 2.10 2.06 2.04 1.92
0.26 0.38 0.44 0.36 0.29 0.27 0.33 0.38 0.49 0.84 0.90 1.05 1.67 2.52 2.39 2.67 2.70 2.59 2.34 2.09 2.02 1.91 1.92 1.95 2.13 2.08 1.97 2.01 2.01 2.00 2.12 2.24 2.34 2.40 2.51 2.54 2.45 2.24 2.13 2.05 1.94 1.84 1.76 1.72
0.35 0.55 0.80 0.88 0.70 0.46 0.41 0.42 0.47 0.55 0.77 1.10 1.76 2.66 2.52 2.52 2.57 2.51 2.30 2.26 2.25 2.23 2.24 2.21 2.25 2.18 2.08 2.06 1.94 1.80 1.87 2.00 2.11 2.23 2.25 2.21 2.14 2.01 1.89 1.88 1.88 1.77 1.67 1.58
0.38 0.60 0.93 1.32 1.14 0.75 0.61 0.52 0.53 0.63 0.98 1.22 1.63 2.18 2.49 2.43 2.50 2.59 2.51 2.31 2.31 2.42 2.42 2.36 2.34 2.32 2.22 2.13 1.96 1.82 1.78 1.77 1.73 1.86 1.98 1.97 1.95 1.92 1.83 1.72 1.68 1.65 1.61 1.53
0.48 0.67 0.64 0.64 0.62 0.63 0.61 0.57 0.57 0.67 0.78 1.23 1.61 2.06 2.44 2.34 2.48 2.76 2.75 2.58 2.46 2.53 2.52 2.46 2.51 2.44 2.41 2.37 2.22 2.08 1.92 1.79 1.72 1.70 1.68 1.76 1.89 1.90 1.83 1.76 1.70 1.66 1.56 1.45
0.55 0.69 0.68 0.63 0.56 0.60 0.65 0.69 0.63 0.66 0.82 1.20 1.61 2.14 2.26 2.26 2.37 2.51 2.66 2.60 2.47 2.49 2.56 2.60 2.74 2.69 2.63 2.58 2.40 2.24 2.09 1.84 1.70 1.68 1.65 1.68 1.76 1.75 1.70 1.66 1.61 1.57 1.51 1.50
0.58 0.74 0.89 0.80 0.58 0.85 1.22 1.05 0.92 0.90 1.01 1.31 1.74 1.98 1.93 2.06 2.32 2.45 2.53 2.66 2.64 2.75 2.89 2.89 2.81 2.79 2.74 2.67 2.67 2.66 2.39 2.09 1.96 1.84 1.71 1.67 1.64 1.59 1.56 1.44 1.42 1.49 1.51 1.49
0.62 0.81 0.95 1.01 1.10 1.69 1.57 1.06 0.99 1.13 1.29 1.39 1.50 1.56 1.77 2.02 2.22 2.37 2.55 2.75 2.80 2.82 2.79 2.82 2.73 2.74 2.73 2.66 2.62 2.62 2.53 2.29 1.99 1.85 1.68 1.57 1.56 1.53 1.53 1.50 1.47 1.52 1.54 1.47
0.43 0.75 1.07 1.26 1.61 1.72 1.58 1.14 1.14 1.38 1.76 1.57 1.60 1.60 1.73 1.89 2.10 2.49 2.53 2.60 2.81 2.70 2.61 2.68 2.75 2.77 2.75 2.67 2.50 2.42 2.33 2.24 2.10 1.85 1.61 1.47 1.48 1.45 1.45 1.47 1.47 1.51 1.54 1.46
0.49 0.70 1.20 1.51 1.90 2.10 1.86 1.10 0.96 1.45 2.50 1.89 1.76 1.80 1.80 1.95 2.50 2.63 2.33 2.25 2.35 2.44 2.57 2.70 2.79 2.83 2.80 2.75 2.44 2.29 2.18 2.03 1.86 1.61 1.46 1.40 1.42 1.37 1.33 1.39 1.45 1.47 1.50 1.47
1.01 1.10 1.34 1.67 2.13 2.21 1.38 0.90 1.04 2.10 2.63 2.02 1.88 1.87 1.93 2.16 2.33 2.13 1.95 2.01 2.18 2.37 2.52 2.63 2.66 2.67 2.61 2.58 2.36 2.24 2.03 1.87 1.57 1.34 1.29 1.35 1.35 1.30 1.24 1.29 1.33 1.41 1.39 1.42
1.40 1.60 1.70 1.87 2.33 2.45 1.23 1.04 1.50 1.88 1.59 1.54 1.56 1.54 1.59 1.69 1.75 1.80 1.84 1.91 1.99 2.14 2.34 2.42 2.48 2.48 2.35 2.25 2.16 2.04 1.86 1.59 1.40 1.27 1.22 1.30 1.38 1.21 1.11 1.20 1.19 1.24 1.40 1.36
1.41 1.61 1.85 2.11 2.47 2.06 1.35 1.31 1.33 1.37 1.38 1.33 1.40 1.36 1.37 1.44 1.49 1.61 1.81 1.92 1.94 1.90 2.08 2.13 2.04 1.97 1.98 1.90 1.86 1.77 1.58 1.38 1.29 1.32 1.36 1.36 1.33 1.27 1.25 1.26 1.22 1.24 1.33 1.34
1.48 1.29 1.61 1.89 1.98 1.65 1.33 1.23 1.24 1.15 1.11 1.13 1.27 1.28 1.22 1.20 1.15 1.27 1.42 1.61 1.74 1.72 1.71 1.79 1.76 1.69 1.70 1.62 1.53 1.45 1.30 1.28 1.29 1.34 1.43 1.51 1.39 1.25 1.26 1.32 1.21 1.20 1.20 1.22
1.54 1.49 1.77 2.01 1.93 1.69 1.48 1.27 1.20 1.17 1.12 1.15 1.20 1.14 1.05 0.98 0.96 0.99 1.15 1.27 1.39 1.51 1.45 1.46 1.56 1.58 1.48 1.40 1.33 1.26 1.16 1.16 1.32 1.38 1.35 1.41 1.35 1.29 1.29 1.27 1.13 1.06 1.03 1.09
1.43 1.63 1.98 2.22 1.86 1.77 1.62 1.27 1.07 1.10 1.11 1.04 1.00 0.95 0.95 0.91 0.87 0.89 1.06 1.17 1.25 1.31 1.34 1.38 1.43 1.41 1.34 1.28 1.21 1.14 1.07 1.11 1.28 1.36 1.33 1.26 1.23 1.24 1.18 1.22 1.18 1.12 1.06 1.04